{"data":{"norad_id":46326,"intl_designator":"2020-062B","name":"STARLINK-1654","alt_names":[],"object_type":"PAYLOAD","status":"ACTIVE","operator":null,"country":"US","launch_date":"2020-09-03","launch_site_code":"AFETR","launch_vehicle":null,"mission":null,"orbit_class":"UNKNOWN","rcs_meters":null,"size_class":null,"mass_kg":null,"dimensions":null,"purposes":["comms"],"wikipedia_slug":null,"has_3d_model":false,"image_url":null,"decayed_at":null,"tle_current":{"epoch":"2026-05-25T06:00:02.000160Z","epoch_age_seconds":49413,"freshness":"FRESH","line1":"1 46326U 20062B   26145.25002315  .00319748  50263-4  89602-3 0  9997","line2":"2 46326  53.0370 309.7307 0007772 255.8252 248.3842 15.93076177  5699","mean_motion":15.93076177,"eccentricity":0.0007772,"inclination_deg":53.037,"raan_deg":309.7307,"arg_perigee_deg":255.8252,"mean_anomaly_deg":248.3842,"bstar":0.00089602,"rev_number":569,"period_min":90.391157735579,"perigee_km":288.49497462532,"apogee_km":298.8656474536,"semimajor_km":6671.8173110395,"source":"CELESTRAK","updated_at":"2026-05-25T13:38:16.469916Z"}}}